HELLAS-SAT 3 (42814 NORAD) Tracking and Keplerian Element Data

This shows tracking and keplerian element data for the satellite.

Feedback or suggestion? Click here.




ElementValue
Catalog42814
NameHELLAS-SAT 3
Epoch Orbit515
Epoch Day322.73132008
Epoch Year2018
RAAN58.9462
Inclination0.0831
Eccentricity0.0001259
Argument of Perigee221.7114
Mean Anonmoly79.3626
Mean Motion1.00274168
Decay Rate1.61E-06
L11 42814U 17040A 18322.73132008 .00000161 00000-0 00000-0 0 9999
L22 42814 0.0831 58.9462 0001259 221.7114 79.3626 1.00274168 5155

Live tracking and technical data element details for HELLAS-SAT 3 (NORAD 42814). HELLAS-SAT 3 can be tracked NOW for your location showing map with azimuth and elevation plus other details from your city location.

Track the satellite on the map from your city or location and see movement details for azimuth, elevation, latitude, longitude, range, height, and movement on the map or in text.







IsCatalogInMostPopularTable: catalog: 42814, numindb: 109
Update: records affected: 1



GetName: 42814 HELLAS-SAT 3

Hit Count: updated at: Mon, 19 Nov 2018 12:05:32 GMT